Regional Weather Roundup
Issued by NWS

Home | Current Version | Previous Version | Text Only | Print | Product List | Glossary Off
Versions: 1 2 3 4 5 6 7 8 9 10 11 12 13 14 15 16 17 18 19 20 21 22 23 24 25 26 27 28 29 30 31 32 33 34 35 36 37 38 39 40 41 42 43 44 45 46 47 48 49 50

000
ASUS43 KMPX 192001
RWRMN
WEATHER ROUNDUP FOR MINNESOTA
NATIONAL WEATHER SERVICE TWIN CITIES/CHANHASSEN MN
200 PM CST FRI DEC 19 2014


NOTE: "FAIR" INDICATES FEW OR NO CLOUDS BELOW 12,000 FEET WITH NO
SIGNIFICANT WEATHER AND/OR OBSTRUCTIONS TO VISIBILITY. N/A MEANS
CURRENT SKY AND/OR WEATHER CONDITIONS ARE NOT AVAILABLE.

MNZ060>063-068>070-192100-
   Twin Cities Metro

CITY           SKY/WX    TMP DP  RH WIND       PRES   REMARKS
TWIN CITIES    CLOUDY    27  22  81 SE9       30.20F WCI  18
ST PAUL        CLOUDY    27  23  85 SE10      30.22F WCI  17
CRYSTAL        CLOUDY    28  22  78 SE8       30.18F HAZE    WCI  20
BLAINE         CLOUDY    28  25  86 SE9       30.19F WCI  20
LAKEVILLE      CLOUDY    27  25  93 SE6       30.19F FOG     WCI  20
EDEN PRAIRIE   CLOUDY    29  23  78 SE8       30.18F HAZE    WCI  21
SOUTH ST PAUL  PTSUNNY   28  23  80 SE6       30.20F WCI  22
LAKE ELMO      CLOUDY    28  23  80 SE6       30.22S WCI  22
$$
MNZ001>005-007-008-013>017-022>024-027-028-192100-
   Northwest Minnesota

CITY           SKY/WX    TMP DP  RH WIND       PRES   REMARKS
BEMIDJI        FOG       22  21  97 SE8       30.06F VSB 1   WCI  12
HALLOCK        CLOUDY    28  27  93 S9        30.02F FOG     WCI  20
ROSEAU         CLOUDY    25  21  86 SE9       30.05F FOG     WCI  15
WARROAD        CLOUDY    25  19  80 S8        30.06F FOG     WCI  16
THIEF RVR FALL CLOUDY    25  23  93 SE12      30.03F WCI  14
CROOKSTON      CLOUDY    27  27 100 S14       30.04F FOG     WCI  15
FOSSTON        CLOUDY    23  21  93 SE8       30.04F FOG     WCI  14
DETROIT LAKES  CLOUDY    27  27 100 S12       30.05F WCI  16
MOORHEAD       CLOUDY    30  30 100 S14       30.04F FOG     WCI  20
PARK RAPIDS    CLOUDY    24  23  96 SE13      30.06F FOG     WCI  12
MAHNOMEN       CLOUDY    26  24  93 S13       30.04F FOG     WCI  15
$$
MNZ006-009>011-018-025>026-192100-
   North Central Minnesota

CITY           SKY/WX    TMP DP  RH WIND       PRES   REMARKS
BAUDETTE       CLOUDY    24  19  81 S7        30.07F WCI  16
FLAG ISLAND    CLOUDY    21  19  93 S16       30.06F WCI   7
INTL FALLS     LGT SNOW  24  19  81 SE8       30.11F WCI  15
WASKISH        CLOUDY    25  21  86 SE7       30.09S WCI  17
BIG FORK       CLOUDY    25  19  80 S6        30.11F FOG     WCI  18
LONGVILLE      CLOUDY    21  21 100 SE6       30.10F FOG     WCI  14
GRAND RAPIDS   CLOUDY    21  19  93 SE10      30.11F WCI  10
CRANE LAKE     CLOUDY    23  19  86 SE3       30.16F
ORR            FLURRIES  23  18  80 SE6       30.10F WCI  16
COOK           LGT SNOW  23  19  86 SE6       30.13F WCI  16
WALKER         FOG       22  20  96 SE6       30.09S VSB 1   WCI  14
$$
MNZ012-019>021-037-192100-
   Northeast Minnesota

CITY           SKY/WX    TMP DP  RH WIND       PRES   REMARKS
DULUTH         FLURRIES  23  19  85 S5        30.16S WCI  17
ELY            CLOUDY    23  19  86 S6        30.15S WCI  16
HIBBING        LGT SNOW  25  18  74 SE9       30.13F WCI  15
EVELETH        CLOUDY    25  19  80 SE8       30.15F WCI  16
DULUTH HARBOR  CLOUDY    27  23  86 CALM      30.22F
SILVER BAY     LGT SNOW  25  21  86 S3        30.17F
GRAND MARAIS     N/A     30  23  75 S9        30.23F WCI  22
G MARAIS ARPRT CLOUDY    21  18  86 S3        30.15F
$$
MNZ029>031-032-039>041-046>048-054>057-064-192100-
   West Central Minnesota

CITY           SKY/WX    TMP DP  RH WIND       PRES   REMARKS
FERGUS FALLS   CLOUDY    28  28 100 S14       30.08S FOG     WCI  17
WHEATON        CLOUDY    28  27  93 S9        30.07S FOG     WCI  20
MORRIS         MOSUNNY   30  28  93 S15       30.06S FOG     WCI  19
ALEXANDRIA     CLOUDY    28  26  92 S14       30.07F FOG     WCI  17
ELBOW LAKE     CLOUDY    29  27  94 S20       30.04F FOG     WCI  16
WADENA         FOG       23  23 100 SE5       30.07F VSB 3/4 WCI  17
GLENWOOD       CLOUDY    28  28 100 S10       30.09F FOG     WCI  19
APPLETON       CLOUDY    32  28  86 S6        30.08S FOG     WCI  26
BENSON         CLOUDY    30  27  86 SW12      30.10R FOG     WCI  21
ORTONVILLE     CLOUDY    30  27  86 S14       30.05F WCI  20
MADISON        MOSUNNY   34  32  93 S9        30.07F FOG     WCI  26
WILLMAR        CLOUDY    32  28  86 S6        30.11F FOG     WCI  26
$$
MNZ033>034-036-042>043-049>051-058-059-192100-
   Central Minnesota

CITY           SKY/WX    TMP DP  RH WIND       PRES   REMARKS
ST CLOUD       CLOUDY    28  23  81 SE10      30.14F HAZE    WCI  19
SAUK CENTRE    CLOUDY    27  27  98 SE9       30.10F FOG     WCI  18
PAYNESVILLE    CLOUDY    26  26  99 SE6G16    30.12F FOG     WCI  20
AITKIN         CLOUDY    27  21  80 SE6       30.12F WCI  20
PINE RIVER     CLOUDY    23  23 100 SE7       30.13F FOG     WCI  15
BRAINERD       CLOUDY    23  22  96 SE5       30.12F FOG     WCI  17
STAPLES        CLOUDY    21  21 100 SE8       30.09F FOG     WCI  12
LONG PRAIRIE   CLOUDY    27  27 100 SE9       30.10F FOG     WCI  17
LITTLE FALLS   CLOUDY    27  23  86 SE10      30.13F FOG     WCI  17
LITCHFIELD     CLOUDY    30  30 100 SE6       30.14F FOG     WCI  24
BUFFALO        CLOUDY    28  24  84 SE7       30.17F FOG     WCI  21
MAPLE LAKE     CLOUDY    29  27  91 SE7       30.16F FOG     WCI  22
$$
MNZ037-044-045-052-053-192100-
   East Central Minnesota

CITY           SKY/WX    TMP DP  RH WIND       PRES   REMARKS
PRINCETON      CLOUDY    27  23  86 CALM      30.16F FOG
MORA           CLOUDY    27  21  80 SE6       30.19F WCI  20
CAMBRIDGE      CLOUDY    27  19  74 SE7       30.16F WCI  19
RUSH CITY      CLOUDY    26  21  82 SE8       30.20F WCI  18
MOOSE LAKE     CLOUDY    27  19  74 SE5       30.16S WCI  21
HINCKLEY       CLOUDY    27  21  80 CALM      30.18F
CLOQUET        CLOUDY    25  19  80 SE5       30.16F WCI  19
MCGREGOR       CLOUDY    27  21  80 SE9       30.15F WCI  17
$$
MNZ071>073-080-081-089-090-097-098-192100-
   Southwest Minnesota

CITY           SKY/WX    TMP DP  RH WIND       PRES   REMARKS
MONTEVIDEO     CLOUDY    30  30 100 SW10G18   30.10S FOG     WCI  21
GRANITE FALLS  CLOUDY    31  28  89 S17       30.11F FOG     WCI  20
CANBY          CLOUDY    31  29  92 S7        30.08F FOG     WCI  25
MARSHALL       CLOUDY    30  27  86 S15       30.09F WCI  19
REDWOOD FALLS  CLOUDY    33  28  81 S15       30.12F HAZE    WCI  23
OLIVIA         CLOUDY    34  30  86 S9        30.11F FOG     WCI  26
PIPESTONE      CLOUDY    28  28 100 SW7       30.06F FOG     WCI  21
WINDOM         CLOUDY    32  28  86 S7        30.12F WCI  26
WORTHINGTON    CLOUDY    30  27  86 S12       30.11F WCI  21
JACKSON        CLOUDY    32  28  86 S13       30.13F WCI  22
TRACY          CLOUDY    32  29  90 SW13      30.10F FOG     WCI  22
SLAYTON        CLOUDY    30  29  96 S9        30.10F FOG     WCI  21
$$
MNZ065>067-074>077-082>085-091>093-192100-
   South Central Minnesota

CITY           SKY/WX    TMP DP  RH WIND       PRES   REMARKS
MANKATO        CLOUDY    30  25  80 S10       30.17F WCI  21
NEW ULM        CLOUDY    30  30 100 S10       30.15F FOG     WCI  21
ST JAMES       CLOUDY    34  30  86 S9        30.16F FOG     WCI  26
FAIRMONT       CLOUDY    32  23  69 S12       30.15F WCI  23
GLENCOE        CLOUDY    31  29  92 SE8       30.15F FOG     WCI  24
FARIBAULT      CLOUDY    28  25  86 S6        30.19F FOG     WCI  22
OWATONNA       MOSUNNY   28  25  86 SE8       30.18F FOG     WCI  20
WASECA         CLOUDY    32  28  86 S8        30.19F FOG     WCI  25
ALBERT LEA     PTSUNNY   28  27  93 S7        30.18F FOG     WCI  21
$$
MNZ078>079-086>088-094>096-192100-
   Southeast Minnesota

CITY           SKY/WX    TMP DP  RH WIND       PRES   REMARKS
ROCHESTER      CLOUDY    28  21  75 SE9       30.20F WCI  19
RED WING       CLOUDY    28  21  74 SE6       30.22F WCI  22
STANTON        CLOUDY    30  25  79 S7        30.19F WCI  23
DODGE CENTER   CLOUDY    28  25  86 S9        30.19F FOG     WCI  20
WINONA         CLOUDY    32  23  69 CALM      30.26F
AUSTIN         CLOUDY    28  25  86 S7        30.19F FOG     WCI  21
PRESTON        CLOUDY    27  21  77 S6        30.21F WCI  21
$$
ABBREVIATIONS USED IN REMARKS
   TC - TEMPERATURES IN CELSIUS
  WCI - WIND CHILL INDEX
   HX - HEAT INDEX
  VSB - VISIBILITY
$$



USA.gov is the U.S. government's official web portal to all federal, state and local government web resources and services.